When you browse on this site, cookies collect data to enhance your experience and personalize the content and advertising you see.
Visit our Privacy Policy to learn more. By continuing to use the site, you agree to this use of cookies and data.

Hourly Weather Uzgovo

Today, 4 July, Saturday

Time Temperature Precipitation Wind Pressure Humidity
00:00 +18°C° 0 mm 1 mps 740 mmHg 79%
01:00 +16°C° 0 mm 1 mps 740 mmHg 82%
02:00 +16°C° 0 mm 1 mps 740 mmHg 81%
03:00 +16°C° 0 mm 1 mps 740 mmHg 81%
04:00 +15°C° 0 mm 0 mps 740 mmHg 82%
05:00 +15°C° 0 mm 0 mps 739 mmHg 83%
06:00 +17°C° 0 mm 0 mps 740 mmHg 76%
07:00 +19°C° 0 mm 0 mps 740 mmHg 69%
08:00 +23°C° 0 mm 1 mps 741 mmHg 62%
09:00 +24°C° 0.1 mm 1 mps 740 mmHg 57%
10:00 +25°C° 0.1 mm 2 mps 740 mmHg 51%
11:00 +26°C° 0.1 mm 2 mps 740 mmHg 45%
12:00 +26°C° 0 mm 2 mps 740 mmHg 44%
13:00 +27°C° 0 mm 2 mps 740 mmHg 43%
14:00 +26°C° 0 mm 3 mps 740 mmHg 44%
15:00 +26°C° 0 mm 3 mps 740 mmHg 47%
16:00 +25°C° 0 mm 3 mps 740 mmHg 51%
17:00 +25°C° 0 mm 3 mps 739 mmHg 54%
18:00 +23°C° 0.1 mm 2 mps 740 mmHg 62%
19:00 +21°C° 0.1 mm 2 mps 740 mmHg 70%
20:00 +19°C° 0.1 mm 2 mps 740 mmHg 78%
21:00 +19°C° 0 mm 1 mps 740 mmHg 80%
22:00 +16°C° 0 mm 1 mps 740 mmHg 82%
23:00 +15°C° 0 mm 1 mps 740 mmHg 83%

Tomorrow, 5 July, Sunday

Time Temperature Precipitation Wind Pressure Humidity
00:00 +15°C° 0 mm 1 mps 740 mmHg 83%
01:00 +15°C° 0 mm 1 mps 740 mmHg 82%
02:00 +14°C° 0 mm 1 mps 740 mmHg 82%
03:00 +15°C° 0 mm 2 mps 740 mmHg 80%
04:00 +16°C° 0 mm 2 mps 740 mmHg 78%
05:00 +16°C° 0 mm 2 mps 739 mmHg 75%
06:00 +18°C° 0 mm 3 mps 739 mmHg 69%
07:00 +20°C° 0 mm 3 mps 739 mmHg 63%
08:00 +22°C° 0 mm 4 mps 739 mmHg 57%
09:00 +23°C° 0 mm 4 mps 739 mmHg 53%
10:00 +25°C° 0 mm 4 mps 739 mmHg 50%
11:00 +26°C° 0 mm 5 mps 738 mmHg 46%
12:00 +26°C° 0.1 mm 5 mps 738 mmHg 50%
13:00 +25°C° 0.1 mm 4 mps 738 mmHg 54%
14:00 +25°C° 0.1 mm 4 mps 738 mmHg 58%
15:00 +23°C° 0.1 mm 4 mps 737 mmHg 62%
16:00 +23°C° 0.1 mm 4 mps 737 mmHg 66%
17:00 +22°C° 0.1 mm 4 mps 737 mmHg 70%
18:00 +21°C° 0.1 mm 3 mps 737 mmHg 77%
19:00 +20°C° 0.1 mm 3 mps 737 mmHg 83%
20:00 +19°C° 0.1 mm 2 mps 737 mmHg 90%
21:00 +19°C° 0 mm 3 mps 737 mmHg 92%
22:00 +18°C° 0 mm 3 mps 736 mmHg 93%
23:00 +18°C° 0 mm 3 mps 736 mmHg 95%

Day after tomorrow, 6 July, Monday

Time Temperature Precipitation Wind Pressure Humidity
00:00 +18°C° 0 mm 3 mps 736 mmHg 94%
01:00 +18°C° 0 mm 4 mps 736 mmHg 94%
02:00 +18°C° 0 mm 4 mps 736 mmHg 93%
03:00 +18°C° 0 mm 4 mps 736 mmHg 92%
04:00 +19°C° 0 mm 4 mps 736 mmHg 91%
05:00 +19°C° 0 mm 4 mps 735 mmHg 90%
06:00 +19°C° 0 mm 4 mps 736 mmHg 87%
07:00 +20°C° 0 mm 4 mps 736 mmHg 84%
08:00 +20°C° 0 mm 4 mps 736 mmHg 82%
09:00 +21°C° 0.2 mm 4 mps 736 mmHg 81%
10:00 +22°C° 0.2 mm 4 mps 736 mmHg 79%
11:00 +22°C° 0.2 mm 4 mps 736 mmHg 78%
12:00 +23°C° 0.3 mm 4 mps 736 mmHg 77%
13:00 +23°C° 0.3 mm 4 mps 736 mmHg 76%
14:00 +23°C° 0.3 mm 4 mps 736 mmHg 75%
15:00 +23°C° 0.2 mm 4 mps 736 mmHg 73%
16:00 +24°C° 0.2 mm 3 mps 736 mmHg 72%
17:00 +24°C° 0.2 mm 3 mps 736 mmHg 70%
18:00 +23°C° 0 mm 2 mps 736 mmHg 76%
19:00 +21°C° 0 mm 2 mps 736 mmHg 81%
20:00 +21°C° 0 mm 1 mps 736 mmHg 86%
21:00 +20°C° 0 mm 1 mps 736 mmHg 89%
22:00 +20°C° 0 mm 1 mps 736 mmHg 92%
23:00 +19°C° 0 mm 1 mps 737 mmHg 95%

7 July, Tuesday

Time Temperature Precipitation Wind Pressure Humidity
00:00 +19°C° 0 mm 1 mps 737 mmHg 94%
01:00 +17°C° 0 mm 0 mps 737 mmHg 93%
02:00 +17°C° 0 mm 0 mps 737 mmHg 93%
03:00 +16°C° 0.2 mm 0 mps 737 mmHg 94%
04:00 +16°C° 0.2 mm 0 mps 737 mmHg 94%
05:00 +16°C° 0.2 mm 0 mps 737 mmHg 95%
06:00 +16°C° 0.2 mm 0 mps 737 mmHg 96%
07:00 +18°C° 0.2 mm 1 mps 737 mmHg 96%
08:00 +18°C° 0.2 mm 1 mps 737 mmHg 96%
09:00 +18°C° 2.3 mm 1 mps 737 mmHg 97%
10:00 +17°C° 2.3 mm 2 mps 737 mmHg 97%
11:00 +16°C° 2.3 mm 2 mps 737 mmHg 97%
12:00 +16°C° 0.1 mm 2 mps 737 mmHg 95%
13:00 +18°C° 0.1 mm 1 mps 737 mmHg 93%
14:00 +18°C° 0.1 mm 1 mps 737 mmHg 90%
15:00 +18°C° 0.1 mm 1 mps 737 mmHg 91%
16:00 +16°C° 0.1 mm 1 mps 738 mmHg 92%
17:00 +16°C° 0.1 mm 1 mps 738 mmHg 93%
18:00 +16°C° 0 mm 1 mps 738 mmHg 92%
19:00 +15°C° 0 mm 1 mps 738 mmHg 92%
20:00 +15°C° 0 mm 1 mps 738 mmHg 91%
21:00 +15°C° 0 mm 1 mps 738 mmHg 91%
22:00 +14°C° 0 mm 1 mps 738 mmHg 90%
23:00 +13°C° 0 mm 1 mps 739 mmHg 90%

8 July, Wednesday

Time Temperature Precipitation Wind Pressure Humidity
00:00 +13°C° 0 mm 1 mps 739 mmHg 90%
01:00 +13°C° 0 mm 1 mps 739 mmHg 90%
02:00 +13°C° 0 mm 1 mps 739 mmHg 89%
03:00 +14°C° 0 mm 1 mps 739 mmHg 88%
04:00 +14°C° 0 mm 1 mps 739 mmHg 87%
05:00 +15°C° 0 mm 1 mps 740 mmHg 86%
06:00 +16°C° 0 mm 1 mps 740 mmHg 80%
07:00 +16°C° 0 mm 0 mps 739 mmHg 74%
08:00 +17°C° 0 mm 0 mps 739 mmHg 68%
09:00 +20°C° 0 mm 1 mps 740 mmHg 66%
10:00 +20°C° 0 mm 1 mps 740 mmHg 63%
11:00 +21°C° 0 mm 1 mps 740 mmHg 61%
12:00 +21°C° 0 mm 2 mps 739 mmHg 58%
13:00 +21°C° 0 mm 2 mps 739 mmHg 56%
14:00 +23°C° 0 mm 2 mps 739 mmHg 54%
15:00 +23°C° 0 mm 2 mps 739 mmHg 54%
16:00 +23°C° 0 mm 2 mps 739 mmHg 54%
17:00 +23°C° 0 mm 2 mps 739 mmHg 53%
18:00 +20°C° 0 mm 2 mps 739 mmHg 61%
19:00 +19°C° 0 mm 1 mps 739 mmHg 70%
20:00 +16°C° 0 mm 1 mps 738 mmHg 78%
21:00 +15°C° 0 mm 1 mps 739 mmHg 80%
22:00 +14°C° 0 mm 1 mps 739 mmHg 82%
23:00 +13°C° 0 mm 1 mps 739 mmHg 84%

9 July, Thursday

Time Temperature Precipitation Wind Pressure Humidity
00:00 +13°C° 0 mm 1 mps 739 mmHg 84%
01:00 +13°C° 0 mm 1 mps 739 mmHg 84%
02:00 +13°C° 0 mm 1 mps 739 mmHg 84%
03:00 +13°C° 0 mm 2 mps 739 mmHg 83%
04:00 +13°C° 0 mm 2 mps 739 mmHg 81%
05:00 +14°C° 0 mm 2 mps 739 mmHg 80%
06:00 +15°C° 0 mm 2 mps 739 mmHg 75%
07:00 +16°C° 0 mm 2 mps 740 mmHg 70%
08:00 +17°C° 0 mm 3 mps 740 mmHg 65%
09:00 +18°C° 0 mm 3 mps 740 mmHg 59%
10:00 +19°C° 0 mm 3 mps 740 mmHg 53%
11:00 +20°C° 0 mm 3 mps 740 mmHg 47%
12:00 +21°C° 0 mm 4 mps 740 mmHg 44%
13:00 +21°C° 0 mm 4 mps 740 mmHg 42%
14:00 +22°C° 0 mm 4 mps 740 mmHg 40%
15:00 +21°C° 0 mm 4 mps 740 mmHg 43%
16:00 +21°C° 0 mm 4 mps 740 mmHg 47%
17:00 +20°C° 0 mm 4 mps 741 mmHg 51%
18:00 +18°C° 0.1 mm 3 mps 741 mmHg 62%
19:00 +16°C° 0.1 mm 2 mps 741 mmHg 72%
20:00 +15°C° 0.1 mm 1 mps 741 mmHg 83%
21:00 +14°C° 0 mm 1 mps 742 mmHg 87%
22:00 +13°C° 0 mm 1 mps 742 mmHg 91%
23:00 +12°C° 0 mm 1 mps 742 mmHg 95%
Show more